Orbital Elements at Epoch 2459200.5 (2020-Dec-17.0) TDB
Reference: JPL 22 (heliocentric ecliptic J2000)
Element | Value | Uncertainty (1-sigma) | Units |
e | .04188506175525789 | 3.8704e-08 | |
a | 2.233891104511216 | 8.1522e-09 | au |
q | 2.140324437644243 | 8.7739e-08 | au |
i | 3.41032351675704 | 3.8963e-06 | deg |
node | 315.3112185795658 | 6.7902e-05 | deg |
peri | 219.1344947947506 | 8.5152e-05 | deg |
M | 46.06783250875208 | 4.9634e-05 | deg |
tp | 2459044.441760469276 (2020-Jul-13.94176047) | 0.00016821 | TDB |
period | 1219.52701422163 3.34 | 6.6756e-06 1.828e-08 | d yr |
n | .2951964128730449 | 1.6159e-09 | deg/d |
Q | 2.32745777137819 | 8.4936e-09 | au |
|
| | Orbit Determination Parameters
Additional Information
|